Tracking 35280 objects as of 7-Sep-2026
HD Live streaming from Space Station
objects crossing your sky now

STARLINK-1848


STARLINK-1848 is no longer on orbit
STARLINK-1848 is classified as:


NORAD ID: 46740
Int'l Code: 2020-074B
Launch date: October 24, 2020
Source: United States (US)
Launch site: AIR FORCE EASTERN TEST RANGE (AFETR)
Decay date: 2026-03-04
Your satellite tracking list
Your tracking list is empty




NASA's NSSDC Master Catalog

Two Line Element Set (TLE):
1 46740U 20074B   26063.10621353  .10028560  12371-4  62757-3 0  9992
2 46740  53.0202 279.1593 0006491 257.3061 102.7260 16.41157069296774
Source of the keplerian elements: AFSPC